Location: *
(49.3500°N, 12.6000°E)
Time: 01:09:00
(UTC+00:00)

STARLINK-40 - Pass Details

Date: 18 October 2019
Orbit: 548 x 551 km, 53.0° (Epoch: 13 November)

Event Time Altitude Azimuth Distance (km) Brightness Sun altitude
Rises 16:51:27 0° 250° (WSW) 2,711 9.1 -6.8°
Reaches altitude 10° 16:53:41 10° 251° (WSW) 1,820 7.9 -7.2°
Maximum altitude 16:57:49 79° 337° (NNW) 564 3.7 -7.8°
Drops below altitude 10° 17:01:59 10° 67° (ENE) 1,828 5.7 -8.5°
Enters shadow 17:02:01 10° 67° (ENE) 1,839 5.7 -8.5°
